Showing default

LEMUR 2 UNTITLED-SC, 63351

Orbit data source: Space-Track

LEMUR 2 UNTITLED-SC, 63351 is a payload satellite owned by OroraTech (US) in SSO that was launched on Wed, 26 Mar 2025 UTC via an ELECTRON launch vehicle from the Rocket Lab Launch Complex (RLLC). Payload-class satellites include a variety of spacecraft equipped with specific instruments for various scientific and technological missions. These include communications satellites like Starlink; space stations such as the ISS; scientific satellites like the Hubble; Earth observation satellites from companies like Planet Labs, Umbra, and HawkEye 360; GPS; miniature CubeSats for education and research; and military/defense satellites.

Loading next visibility...
Identifier
63351, 2025-061A
Orbit
SSO
Country
Flag of USUS
Related business
Manufacturer
Spire/Glasgow
Mission
Operational Commercial Imaging
Bus & Motor
CUBESAT 6U, Unknown motor
Mass
~15 kg wet, ~15 kg dry
Launch date (UTC)
2025-03-26 (7 months ago)
Launch vehicle
ELECTRON
Launch site
Rocket Lab Launch Complex (RLLC)
Object type
Payload
Rocket body
Debris
Shape & HBR
Box + 2 Pan, 0.4 m
Radar Cross Section
0.065 m², Medium (>0.1 m² and < 1m²)

Expand to show TLE details & history
Last TLE update: 18 hours ago

TLE from 18 hours ago
0 LEMUR 2 UNTITLED-SC
1 63351U 25061A   25303.18195213  .00006961  00000-0  41728-3 0  9992
2 63351  97.5391 275.9768 0019171 343.8547  16.2070 15.11133892 32826
Epoch: 2025-10-30T04:22Z
TLE epoch observation values (Epoch: 2025-10-30T04:22:00.664Z)
Latitude
0.00004°
Longitude
171.72961°
Altitude
523.092 km
Speed
7.609 km/s
True Right ascension
18h 23m 54s
True Declination
0° 00' 00"
Sunlit
Object was in daylight at epoch
Visualization orbit readout
Latitude
Unknown
Longitude
Unknown
Altitude
Unknown
Speed
Unknown
Apparent Right ascension
Unknown
Apparent Declination
Unknown
Sunlit
N/A
Visualization observer readout
Local Sidereal Time
17:44:11
Azimuth
Unknown
Elevation
Unknown
Doppler factor
Unknown
Orbital elements
Apogee altitude
542.967 km
Perigee altitude
516.481 km
Semi-major axis
6,907.861 km
Eccentricity
0.00192
Inclination
97.5391°
RAAN
275.9768°
Arg. of periapsis
343.8547°
True anomaly
16.26846°
Mean anomaly
16.207°
Eccentric anomaly
16.23771°
Mean motion
3.78031 °/min
Orbital period
95.23 mins
BSTAR
0.00041728
Loading maneuver chart data...
Computing Atmospheric mass density...
Loading historical data...
Loading historical data...
Loading historical data...
Loading historical data...
Loading historical data...
Loading historical data...
Loading historical data...

Documentation

Showing up to 5 results
|